| time (UTC) | temp F | wind direction | speed knots | gust knots | rain 1hr in | rain 24hr in | rain mn in | humidity % | barometer mb |
| 20260505224515 | 71 | 250 | 15.6 | 26.1 | 0.00 | 0.02 | 0.02 | 28 | 1019.5 |
| 20260505224015 | 71 | 255 | 19.1 | 29.5 | 0.00 | 0.02 | 0.02 | 26 | 1019.4 |
| 20260505223515 | 72 | 246 | 16.5 | 29.5 | 0.00 | 0.02 | 0.02 | 27 | 1019.6 |
| 20260505223035 | 72 | 256 | 15.6 | 29.5 | 0.00 | 0.02 | 0.02 | 27 | 1019.9 |
| 20260505222515 | 71 | 225 | 15.6 | 30.4 | 0.00 | 0.02 | 0.02 | 28 | 1020.1 |
| 20260505222015 | 72 | 235 | 14.8 | 25.2 | 0.00 | 0.02 | 0.02 | 27 | 1020.1 |
| 20260505221515 | 72 | 242 | 11.3 | 20.0 | 0.00 | 0.02 | 0.02 | 27 | 1020.1 |
| 20260505221035 | 71 | 213 | 12.2 | 24.3 | 0.00 | 0.02 | 0.02 | 32 | 1020.2 |
| 20260505220515 | 70 | 216 | 13.0 | 20.0 | 0.00 | 0.02 | 0.02 | 33 | 1020.0 |
| 20260505220035 | 70 | 216 | 12.2 | 21.7 | 0.00 | 0.02 | 0.02 | 33 | 1020.3 |
| 20260505215515 | 70 | 225 | 13.0 | 22.6 | 0.00 | 0.02 | 0.02 | 33 | 1020.3 |
| 20260505215015 | 71 | 234 | 10.4 | 16.5 | 0.00 | 0.02 | 0.02 | 34 | 1020.5 |
| 20260505214555 | 69 | 236 | 12.2 | 19.1 | 0.00 | 0.02 | 0.02 | 37 | 1020.4 |
| 20260505214055 | 69 | 220 | 12.2 | 21.7 | 0.00 | 0.02 | 0.02 | 37 | 1020.5 |
| 20260505213515 | 69 | 220 | 12.2 | 24.3 | 0.00 | 0.02 | 0.02 | 37 | 1020.7 |
| 20260505213035 | 70 | 214 | 15.6 | 26.1 | 0.00 | 0.02 | 0.02 | 37 | 1021.0 |
| 20260505212515 | 70 | 231 | 11.3 | 19.1 | 0.00 | 0.02 | 0.02 | 39 | 1021.1 |
| 20260505212016 | 70 | 207 | 13.9 | 28.7 | 0.00 | 0.02 | 0.02 | 38 | 1021.1 |
| 20260505211515 | 69 | 204 | 14.8 | 24.3 | 0.00 | 0.02 | 0.02 | 37 | 1021.0 |
| 20260505211015 | 70 | 211 | 13.0 | 23.5 | 0.00 | 0.02 | 0.02 | 36 | 1021.3 |
| 20260505210515 | 71 | 225 | 13.9 | 21.7 | 0.00 | 0.02 | 0.02 | 34 | 1021.4 |
| 20260505210015 | 70 | 211 | 12.2 | 26.9 | 0.00 | 0.02 | 0.02 | 33 | 1021.4 |
| 20260505205515 | 70 | 229 | 13.0 | 21.7 | 0.00 | 0.02 | 0.02 | 35 | 1021.4 |
| 20260505205015 | 70 | 218 | 12.2 | 20.0 | 0.00 | 0.02 | 0.02 | 37 | 1021.5 |
| 20260505204515 | 69 | 220 | 13.0 | 26.9 | 0.00 | 0.02 | 0.02 | 36 | 1021.4 |
| 20260505204015 | 70 | 232 | 14.8 | 24.3 | 0.00 | 0.02 | 0.02 | 34 | 1021.6 |
| 20260505203515 | 69 | 217 | 13.9 | 23.5 | 0.00 | 0.02 | 0.02 | 37 | 1021.4 |
| 20260505203015 | 69 | 218 | 13.9 | 26.9 | 0.00 | 0.02 | 0.02 | 36 | 1021.6 |
| 20260505202515 | 69 | 238 | 13.9 | 26.1 | 0.00 | 0.02 | 0.02 | 37 | 1021.7 |
| 20260505202015 | 69 | 235 | 12.2 | 23.5 | 0.00 | 0.02 | 0.02 | 38 | 1021.7 |
| 20260505201515 | 69 | 223 | 14.8 | 26.1 | 0.00 | 0.02 | 0.02 | 39 | 1021.7 |
| 20260505201015 | 68 | 199 | 13.0 | 24.3 | 0.00 | 0.02 | 0.02 | 42 | 1021.6 |
| 20260505200515 | 68 | 206 | 11.3 | 21.7 | 0.00 | 0.02 | 0.02 | 45 | 1021.7 |
| 20260505200015 | 66 | 183 | 13.0 | 22.6 | 0.00 | 0.02 | 0.02 | 47 | 1021.5 |
| 20260505195515 | 67 | 206 | 13.9 | 24.3 | 0.00 | 0.02 | 0.02 | 44 | 1021.9 |
| 20260505195015 | 67 | 205 | 13.0 | 21.7 | 0.00 | 0.02 | 0.02 | 44 | 1022.0 |
| 20260505194535 | 67 | 198 | 13.0 | 23.5 | 0.00 | 0.02 | 0.02 | 48 | 1022.0 |
| 20260505194015 | 67 | 194 | 11.3 | 17.4 | 0.00 | 0.02 | 0.02 | 47 | 1022.1 |
| 20260505193515 | 67 | 199 | 11.3 | 19.1 | 0.00 | 0.02 | 0.02 | 48 | 1022.1 |
| 20260505193015 | 66 | 204 | 13.0 | 19.1 | 0.00 | 0.02 | 0.02 | 50 | 1021.9 |
| 20260505192515 | 66 | 197 | 11.3 | 18.2 | 0.00 | 0.02 | 0.02 | 51 | 1021.9 |
| 20260505192015 | 66 | 193 | 13.0 | 20.0 | 0.00 | 0.02 | 0.02 | 50 | 1021.9 |
| 20260505191515 | 66 | 194 | 12.2 | 21.7 | 0.00 | 0.02 | 0.02 | 50 | 1022.4 |
| 20260505191015 | 65 | 211 | 9.6 | 17.4 | 0.00 | 0.02 | 0.02 | 52 | 1022.3 |
| 20260505190515 | 65 | 211 | 10.4 | 18.2 | 0.00 | 0.02 | 0.02 | 53 | 1022.4 |
| 20260505190015 | 65 | 201 | 9.6 | 20.9 | 0.00 | 0.02 | 0.02 | 54 | 1022.2 |
| 20260505185515 | 65 | 177 | 10.4 | 17.4 | 0.00 | 0.02 | 0.02 | 56 | 1022.3 |
| 20260505185015 | 65 | 204 | 11.3 | 17.4 | 0.00 | 0.02 | 0.02 | 53 | 1022.3 |
| 20260505184535 | 66 | 179 | 10.4 | 16.5 | 0.00 | 0.02 | 0.02 | 54 | 1022.5 |
| 20260505184015 | 66 | 190 | 9.6 | 16.5 | 0.00 | 0.02 | 0.02 | 55 | 1022.5 |
| 20260505183515 | 65 | 210 | 8.7 | 19.1 | 0.00 | 0.02 | 0.02 | 53 | 1022.4 |
| 20260505183015 | 65 | 202 | 12.2 | 20.9 | 0.00 | 0.02 | 0.02 | 54 | 1022.6 |
| 20260505182515 | 66 | 194 | 9.6 | 20.9 | 0.00 | 0.02 | 0.02 | 57 | 1022.7 |
| 20260505182035 | 64 | 191 | 8.7 | 16.5 | 0.00 | 0.02 | 0.02 | 57 | 1022.5 |
| 20260505181515 | 64 | 195 | 11.3 | 20.0 | 0.00 | 0.02 | 0.02 | 59 | 1022.6 |
| 20260505181015 | 62 | 195 | 10.4 | 18.2 | 0.00 | 0.02 | 0.02 | 61 | 1022.4 |
| 20260505180515 | 62 | 193 | 13.0 | 20.0 | 0.00 | 0.02 | 0.02 | 60 | 1022.3 |
| 20260505180015 | 63 | 189 | 13.0 | 21.7 | 0.00 | 0.02 | 0.02 | 59 | 1022.5 |
| 20260505175535 | 63 | 195 | 11.3 | 20.9 | 0.00 | 0.02 | 0.02 | 60 | 1022.5 |
| 20260505175015 | 62 | 197 | 10.4 | 19.1 | 0.00 | 0.02 | 0.02 | 61 | 1022.4 |
| 20260505174515 | 62 | 206 | 10.4 | 16.5 | 0.00 | 0.02 | 0.02 | 61 | 1022.3 |
| 20260505174015 | 62 | 195 | 10.4 | 16.5 | 0.00 | 0.02 | 0.02 | 62 | 1022.3 |
| 20260505173515 | 62 | 199 | 9.6 | 18.2 | 0.00 | 0.02 | 0.02 | 61 | 1022.3 |
| 20260505173015 | 62 | 207 | 9.6 | 15.6 | 0.00 | 0.02 | 0.02 | 62 | 1022.4 |
| 20260505172515 | 62 | 200 | 11.3 | 17.4 | 0.00 | 0.02 | 0.02 | 62 | 1022.4 |
| 20260505172015 | 62 | 208 | 9.6 | 14.8 | 0.00 | 0.02 | 0.02 | 61 | 1022.4 |
| 20260505171535 | 62 | 200 | 11.3 | 17.4 | 0.00 | 0.02 | 0.02 | 61 | 1022.4 |
| 20260505171015 | 62 | 198 | 11.3 | 19.1 | 0.00 | 0.02 | 0.02 | 60 | 1022.4 |
| 20260505170515 | 62 | 201 | 11.3 | 20.0 | 0.00 | 0.02 | 0.02 | 60 | 1022.4 |
| 20260505170015 | 62 | 207 | 10.4 | 18.2 | 0.00 | 0.02 | 0.02 | 60 | 1022.6 |
| 20260505165515 | 62 | 208 | 7.8 | 19.1 | 0.00 | 0.02 | 0.02 | 60 | 1022.5 |
| 20260505165015 | 62 | 201 | 7.8 | 13.9 | 0.00 | 0.02 | 0.02 | 62 | 1022.3 |
| 20260505164515 | 61 | 206 | 11.3 | 20.0 | 0.00 | 0.02 | 0.02 | 62 | 1022.1 |
| 20260505164015 | 61 | 198 | 11.3 | 18.2 | 0.00 | 0.02 | 0.02 | 62 | 1022.0 |
| 20260505163515 | 61 | 199 | 12.2 | 19.1 | 0.00 | 0.02 | 0.02 | 61 | 1022.0 |
| 20260505163015 | 61 | 202 | 11.3 | 20.0 | 0.00 | 0.02 | 0.02 | 63 | 1022.4 |
| 20260505162515 | 60 | 205 | 13.0 | 20.0 | 0.00 | 0.02 | 0.02 | 63 | 1022.3 |
| 20260505162015 | 60 | 203 | 11.3 | 18.2 | 0.00 | 0.02 | 0.02 | 64 | 1022.2 |
| 20260505161515 | 60 | 194 | 13.9 | 21.7 | 0.00 | 0.02 | 0.02 | 64 | 1022.2 |
| 20260505161015 | 60 | 208 | 10.4 | 16.5 | 0.00 | 0.02 | 0.02 | 66 | 1022.1 |
| 20260505160515 | 59 | 205 | 10.4 | 17.4 | 0.00 | 0.02 | 0.02 | 66 | 1021.9 |
| 20260505153015 | 58 | 207 | 7.0 | 12.2 | 0.00 | 0.02 | 0.02 | 69 | 1021.3 |
| 20260505152535 | 58 | 200 | 7.0 | 14.8 | 0.00 | 0.02 | 0.02 | 70 | 1021.2 |
| 20260505152015 | 57 | 202 | 7.0 | 12.2 | 0.00 | 0.02 | 0.02 | 71 | 1021.2 |
| 20260505151515 | 57 | 204 | 8.7 | 16.5 | 0.00 | 0.02 | 0.02 | 71 | 1021.3 |
| 20260505151035 | 57 | 202 | 7.8 | 13.0 | 0.00 | 0.02 | 0.02 | 73 | 1021.2 |
| 20260505150515 | 57 | 204 | 10.4 | 15.6 | 0.00 | 0.02 | 0.02 | 72 | 1021.1 |
| 20260505140515 | 54 | 177 | 0.9 | 3.5 | 0.02 | 0.02 | 0.02 | 84 | 1020.8 |
| 20260505125015 | 55 | 170 | 6.1 | 7.8 | 0.00 | 0.00 | 0.00 | 85 | 1021.1 |
| 20260505124515 | 55 | 163 | 5.2 | 8.7 | 0.00 | 0.00 | 0.00 | 88 | 1020.8 |
| 20260505124015 | 54 | 167 | 6.1 | 8.7 | 0.00 | 0.00 | 0.00 | 89 | 1020.8 |
| 20260505123555 | 54 | 182 | 5.2 | 7.8 | 0.00 | 0.00 | 0.00 | 90 | 1021.0 |
| 20260505123015 | 54 | 185 | 4.3 | 6.1 | 0.00 | 0.00 | 0.00 | 90 | 1021.3 |
| 20260505122515 | 54 | 202 | 4.3 | 7.0 | 0.00 | 0.00 | 0.00 | 90 | 1021.5 |
| 20260505122015 | 54 | 213 | 1.7 | 4.3 | 0.00 | 0.00 | 0.00 | 89 | 1021.2 |
| 20260505121515 | 54 | 221 | 0.9 | 1.7 | 0.00 | 0.00 | 0.00 | 88 | 1021.4 |
| 20260505121015 | 54 | 210 | 1.7 | 2.6 | 0.00 | 0.00 | 0.00 | 88 | 1021.5 |
| 20260505120515 | 54 | 194 | 0.9 | 1.7 | 0.00 | 0.00 | 0.00 | 88 | 1021.4 |
| 20260505120015 | 54 | 0.0 | 0.0 | 0.00 | 0.00 | 0.00 | 88 | 1021.7 | |
| 20260505115515 | 54 | 80 | 0.9 | 1.7 | 0.00 | 0.00 | 0.00 | 88 | 1021.7 |
| 20260505115015 | 54 | 77 | 2.6 | 3.5 | 0.00 | 0.00 | 0.00 | 88 | 1021.7 |
| 20260505114515 | 54 | 69 | 2.6 | 4.3 | 0.00 | 0.00 | 0.00 | 88 | 1021.8 |
| 20260505114055 | 54 | 45 | 2.6 | 5.2 | 0.00 | 0.00 | 0.00 | 88 | 1021.9 |
| 20260505113515 | 54 | 35 | 3.5 | 6.1 | 0.00 | 0.00 | 0.00 | 88 | 1021.8 |
| 20260505113015 | 54 | 48 | 3.5 | 6.1 | 0.00 | 0.00 | 0.00 | 89 | 1022.0 |
| 20260505112515 | 54 | 56 | 1.7 | 5.2 | 0.00 | 0.00 | 0.00 | 89 | 1022.3 |
| 20260505112015 | 54 | 34 | 4.3 | 7.0 | 0.00 | 0.00 | 0.00 | 87 | 1022.6 |
| 20260505111535 | 55 | 19 | 5.2 | 7.8 | 0.00 | 0.00 | 0.00 | 84 | 1023.1 |
| 20260505111015 | 56 | 11 | 1.7 | 3.5 | 0.00 | 0.00 | 0.00 | 81 | 1023.6 |
| 20260505110515 | 56 | 343 | 0.9 | 4.3 | 0.00 | 0.00 | 0.00 | 79 | 1023.8 |
| 20260505102055 | 57 | 324 | 6.1 | 11.3 | 0.00 | 0.00 | 0.00 | 79 | 1024.4 |
| 20260505101515 | 57 | 330 | 7.0 | 11.3 | 0.00 | 0.00 | 0.00 | 78 | 1024.4 |
| 20260505101015 | 57 | 324 | 7.0 | 13.0 | 0.00 | 0.00 | 0.00 | 78 | 1024.4 |
| 20260505100515 | 57 | 328 | 7.0 | 10.4 | 0.00 | 0.00 | 0.00 | 78 | 1024.4 |
| 20260505100015 | 57 | 332 | 6.1 | 10.4 | 0.00 | 0.00 | 0.00 | 78 | 1024.4 |
| 20260505095515 | 57 | 340 | 6.1 | 9.6 | 0.00 | 0.00 | 0.00 | 77 | 1024.4 |
| 20260505095015 | 57 | 342 | 5.2 | 8.7 | 0.00 | 0.00 | 0.00 | 76 | 1024.6 |
| 20260505094515 | 58 | 343 | 3.5 | 6.1 | 0.00 | 0.00 | 0.00 | 75 | 1024.7 |
| 20260505094015 | 58 | 353 | 1.7 | 3.5 | 0.00 | 0.00 | 0.00 | 75 | 1024.7 |
| 20260505093515 | 58 | 348 | 1.7 | 3.5 | 0.00 | 0.00 | 0.00 | 75 | 1024.8 |
| 20260505093015 | 58 | 341 | 2.6 | 6.1 | 0.00 | 0.00 | 0.00 | 75 | 1024.8 |
| 20260505092515 | 58 | 332 | 3.5 | 7.0 | 0.00 | 0.00 | 0.00 | 75 | 1024.9 |
| 20260505092015 | 58 | 324 | 3.5 | 7.0 | 0.00 | 0.00 | 0.00 | 74 | 1024.9 |
| 20260505091535 | 58 | 327 | 4.3 | 8.7 | 0.00 | 0.00 | 0.00 | 74 | 1024.7 |
| 20260505091015 | 58 | 324 | 4.3 | 8.7 | 0.00 | 0.00 | 0.00 | 74 | 1024.8 |
| 20260505090515 | 58 | 322 | 5.2 | 8.7 | 0.00 | 0.00 | 0.00 | 73 | 1024.9 |
| 20260505085515 | 58 | 327 | 5.2 | 7.8 | 0.00 | 0.00 | 0.00 | 73 | 1025.1 |
| 20260505085015 | 58 | 317 | 5.2 | 9.6 | 0.00 | 0.00 | 0.00 | 72 | 1025.3 |
| 20260505084535 | 58 | 312 | 4.3 | 7.8 | 0.00 | 0.00 | 0.00 | 73 | 1025.4 |
| 20260505084015 | 58 | 316 | 3.5 | 7.8 | 0.00 | 0.00 | 0.00 | 73 | 1025.3 |
| 20260505083515 | 58 | 313 | 3.5 | 7.8 | 0.00 | 0.00 | 0.00 | 72 | 1025.1 |
| 20260505083015 | 58 | 318 | 1.7 | 7.0 | 0.00 | 0.00 | 0.00 | 71 | 1025.0 |
| 20260505082515 | 58 | 336 | 0.0 | 2.6 | 0.00 | 0.00 | 0.00 | 71 | 1024.8 |
| 20260505082015 | 58 | 0.0 | 0.0 | 0.00 | 0.00 | 0.00 | 71 | 1024.9 | |
| 20260505081535 | 59 | 24 | 0.0 | 1.7 | 0.00 | 0.00 | 0.00 | 70 | 1025.2 |
| 20260505081015 | 59 | 0.0 | 0.0 | 0.00 | 0.00 | 0.00 | 68 | 1025.4 | |
| 20260505080515 | 59 | 324 | 0.9 | 4.3 | 0.00 | 0.00 | 0.00 | 68 | 1025.5 |
| 20260505080015 | 59 | 0.0 | 0.0 | 0.00 | 0.00 | 0.00 | 66 | 1025.4 | |
| 20260505075515 | 59 | 323 | 0.0 | 1.7 | 0.00 | 0.00 | 0.00 | 66 | 1025.2 |
| 20260505075035 | 59 | 314 | 1.7 | 6.1 | 0.00 | 0.00 | 0.00 | 64 | 1025.1 |
| 20260505074515 | 59 | 0.0 | 0.0 | 0.00 | 0.00 | 0.00 | 63 | 1025.0 | |
| 20260505074015 | 59 | 320 | 0.0 | 2.6 | 0.00 | 0.00 | 0.00 | 61 | 1025.0 |
| 20260505073515 | 59 | 344 | 1.7 | 6.1 | 0.00 | 0.00 | 0.00 | 60 | 1025.1 |
| 20260505073015 | 59 | 5 | 0.0 | 1.7 | 0.00 | 0.00 | 0.00 | 58 | 1025.1 |
| 20260505072555 | 60 | 0.0 | 0.0 | 0.00 | 0.00 | 0.00 | 58 | 1025.5 | |
| 20260505070015 | 59 | 49 | 0.0 | 4.3 | 0.00 | 0.00 | 0.00 | 58 | 1024.6 |
| 20260505065515 | 59 | 0.0 | 0.0 | 0.00 | 0.00 | 0.00 | 60 | 1024.8 | |
| 20260505065035 | 59 | 0.0 | 0.0 | 0.00 | 0.00 | 0.00 | 60 | 1024.9 | |
| 20260505064515 | 59 | 0.0 | 0.0 | 0.00 | 0.00 | 0.00 | 61 | 1024.9 | |
| 20260505064035 | 59 | 0.0 | 0.0 | 0.00 | 0.00 | 0.00 | 61 | 1024.8 | |
| 20260505063535 | 58 | 102 | 0.0 | 2.6 | 0.00 | 0.00 | 0.00 | 61 | 1024.6 |
| 20260505063035 | 58 | 96 | 0.9 | 1.7 | 0.00 | 0.00 | 0.00 | 62 | 1024.5 |
| 20260505062535 | 58 | 102 | 0.0 | 2.6 | 0.00 | 0.00 | 0.00 | 63 | 1024.5 |
| 20260505062035 | 58 | 104 | 1.7 | 3.5 | 0.00 | 0.00 | 0.00 | 63 | 1024.3 |
| 20260505061535 | 58 | 104 | 0.9 | 4.3 | 0.00 | 0.00 | 0.00 | 64 | 1024.4 |
| 20260505061015 | 58 | 79 | 0.0 | 1.7 | 0.00 | 0.00 | 0.00 | 63 | 1024.6 |
| 20260505060515 | 58 | 0.0 | 0.0 | 0.00 | 0.00 | 0.00 | 63 | 1024.6 | |
| 20260505060055 | 58 | 91 | 0.0 | 1.7 | 0.00 | 0.00 | 0.00 | 63 | 1024.3 |
| 20260505055516 | 58 | 0.0 | 0.0 | 0.00 | 0.00 | 0.00 | 62 | 1024.4 | |
| 20260505055015 | 58 | 0.0 | 0.0 | 0.00 | 0.00 | 0.00 | 59 | 1024.5 | |
| 20260505054515 | 58 | 0.0 | 0.0 | 0.00 | 0.00 | 0.00 | 58 | 1024.6 | |
| 20260505054015 | 58 | 0.0 | 0.0 | 0.00 | 0.00 | 0.00 | 59 | 1024.6 | |
| 20260505053515 | 59 | 0.0 | 0.0 | 0.00 | 0.00 | 0.00 | 58 | 1024.9 | |
| 20260505053015 | 59 | 0.0 | 0.0 | 0.00 | 0.00 | 0.00 | 57 | 1024.7 | |
| 20260505052535 | 59 | 0.0 | 0.0 | 0.00 | 0.00 | 0.00 | 57 | 1024.7 | |
| 20260505052015 | 59 | 0.0 | 0.0 | 0.00 | 0.00 | 0.00 | 57 | 1024.6 | |
| 20260505051515 | 59 | 0.0 | 0.0 | 0.00 | 0.00 | 0.00 | 56 | 1024.5 | |
| 20260505051015 | 59 | 19 | 0.0 | 0.9 | 0.00 | 0.00 | 0.00 | 56 | 1024.5 |
| 20260505050515 | 59 | 14 | 0.9 | 2.6 | 0.00 | 0.00 | 0.00 | 55 | 1024.6 |
| 20260505041515 | 61 | 342 | 5.2 | 9.6 | 0.00 | 0.00 | 0.00 | 50 | 1025.2 |
| 20260505041015 | 61 | 340 | 0.0 | 5.2 | 0.00 | 0.00 | 0.00 | 50 | 1025.3 |
| 20260505040515 | 62 | 306 | 0.9 | 2.6 | 0.00 | 0.00 | 0.00 | 49 | 1025.3 |
| 20260505040015 | 62 | 316 | 0.0 | 3.5 | 0.00 | 0.00 | 0.00 | 48 | 1025.1 |
| 20260505035515 | 62 | 343 | 2.6 | 6.1 | 0.00 | 0.00 | 0.00 | 47 | 1024.8 |
| 20260505035015 | 61 | 349 | 3.5 | 8.7 | 0.00 | 0.00 | 0.00 | 48 | 1024.4 |
| 20260505034515 | 62 | 355 | 0.0 | 1.7 | 0.00 | 0.00 | 0.00 | 48 | 1024.5 |
| 20260505034015 | 62 | 349 | 0.9 | 5.2 | 0.00 | 0.00 | 0.00 | 48 | 1024.6 |
| 20260505033515 | 62 | 327 | 0.0 | 1.7 | 0.00 | 0.00 | 0.00 | 48 | 1024.4 |
| 20260505033015 | 62 | 0.0 | 0.0 | 0.00 | 0.00 | 0.00 | 47 | 1023.9 | |
| 20260505032515 | 62 | 0.0 | 0.0 | 0.00 | 0.00 | 0.00 | 47 | 1024.0 | |
| 20260505032015 | 62 | 0.0 | 0.0 | 0.00 | 0.00 | 0.00 | 46 | 1024.0 | |
| 20260505031555 | 63 | 0.0 | 0.0 | 0.00 | 0.00 | 0.00 | 46 | 1023.9 | |
| 20260505031015 | 63 | 26 | 0.9 | 3.5 | 0.00 | 0.00 | 0.00 | 46 | 1023.7 |
| 20260505030515 | 63 | 9 | 0.9 | 5.2 | 0.00 | 0.00 | 0.00 | 46 | 1023.6 |
| 20260505030015 | 63 | 10 | 4.3 | 7.8 | 0.00 | 0.00 | 0.00 | 45 | 1023.4 |
| 20260505025515 | 63 | 358 | 4.3 | 8.7 | 0.00 | 0.00 | 0.00 | 44 | 1023.4 |
| 20260505025035 | 63 | 352 | 5.2 | 10.4 | 0.00 | 0.00 | 0.00 | 44 | 1023.2 |
| 20260505024515 | 63 | 358 | 6.1 | 9.6 | 0.00 | 0.00 | 0.00 | 44 | 1023.1 |
| 20260505024015 | 63 | 9 | 5.2 | 8.7 | 0.00 | 0.00 | 0.00 | 44 | 1023.1 |
| 20260505023515 | 63 | 355 | 5.2 | 7.8 | 0.00 | 0.00 | 0.00 | 43 | 1023.1 |
| 20260505023016 | 64 | 352 | 7.0 | 10.4 | 0.00 | 0.00 | 0.00 | 43 | 1023.1 |
| 20260505022515 | 64 | 352 | 6.1 | 9.6 | 0.00 | 0.00 | 0.00 | 43 | 1023.2 |
| 20260505022015 | 64 | 345 | 5.2 | 9.6 | 0.00 | 0.00 | 0.00 | 43 | 1023.3 |
| 20260505021515 | 64 | 337 | 7.0 | 12.2 | 0.00 | 0.00 | 0.00 | 42 | 1023.3 |
| 20260505021035 | 64 | 338 | 8.7 | 16.5 | 0.00 | 0.00 | 0.00 | 42 | 1023.3 |
| 20260505020515 | 65 | 335 | 8.7 | 14.8 | 0.00 | 0.00 | 0.00 | 41 | 1023.4 |
| 20260505020035 | 66 | 333 | 12.2 | 20.9 | 0.00 | 0.00 | 0.00 | 37 | 1022.9 |
| 20260505015515 | 67 | 322 | 10.4 | 20.9 | 0.00 | 0.00 | 0.00 | 33 | 1022.8 |
| 20260505015015 | 68 | 315 | 9.6 | 16.5 | 0.00 | 0.00 | 0.00 | 32 | 1022.9 |
| 20260505014515 | 69 | 313 | 10.4 | 20.0 | 0.00 | 0.00 | 0.00 | 32 | 1022.9 |
| 20260505014015 | 69 | 313 | 7.0 | 13.0 | 0.00 | 0.00 | 0.00 | 33 | 1022.9 |
| 20260505013515 | 70 | 307 | 7.8 | 13.9 | 0.00 | 0.00 | 0.00 | 33 | 1023.2 |
| 20260505013015 | 70 | 320 | 6.1 | 11.3 | 0.00 | 0.00 | 0.00 | 32 | 1023.2 |
| 20260505012515 | 70 | 317 | 6.1 | 12.2 | 0.00 | 0.00 | 0.00 | 33 | 1023.2 |
| 20260505012055 | 70 | 316 | 5.2 | 10.4 | 0.00 | 0.00 | 0.00 | 33 | 1023.2 |
| 20260505011515 | 70 | 317 | 5.2 | 9.6 | 0.00 | 0.00 | 0.00 | 33 | 1023.2 |
| 20260505011015 | 70 | 310 | 5.2 | 10.4 | 0.00 | 0.00 | 0.00 | 33 | 1023.3 |
| 20260505010515 | 70 | 314 | 6.1 | 11.3 | 0.00 | 0.00 | 0.00 | 32 | 1023.4 |
| 20260505010035 | 70 | 318 | 5.2 | 10.4 | 0.00 | 0.00 | 0.00 | 32 | 1023.4 |
| 20260505005555 | 70 | 303 | 7.8 | 12.2 | 0.00 | 0.00 | 0.00 | 31 | 1023.4 |
| 20260505005015 | 71 | 306 | 7.0 | 10.4 | 0.00 | 0.00 | 0.00 | 32 | 1023.3 |
| 20260505004515 | 71 | 307 | 7.0 | 13.0 | 0.00 | 0.00 | 0.00 | 31 | 1023.4 |
| 20260505004035 | 71 | 301 | 8.7 | 15.6 | 0.00 | 0.00 | 0.00 | 31 | 1023.4 |
| 20260505003515 | 71 | 294 | 9.6 | 15.6 | 0.00 | 0.00 | 0.00 | 30 | 1023.5 |
| 20260505003015 | 71 | 298 | 9.6 | 20.0 | 0.00 | 0.00 | 0.00 | 30 | 1023.6 |
| 20260505002535 | 71 | 295 | 9.6 | 17.4 | 0.00 | 0.00 | 0.00 | 30 | 1023.7 |
| 20260505002015 | 72 | 296 | 12.2 | 20.9 | 0.00 | 0.00 | 0.00 | 28 | 1023.8 |
| 20260505001535 | 72 | 299 | 7.8 | 16.5 | 0.00 | 0.00 | 0.00 | 26 | 1023.7 |
| 20260505001015 | 72 | 295 | 11.3 | 18.2 | 0.00 | 0.00 | 0.00 | 24 | 1023.8 |
| 20260505000515 | 73 | 297 | 8.7 | 17.4 | 0.00 | 0.00 | 0.00 | 23 | 1023.9 |
| 20260505000015 | 73 | 296 | 7.8 | 16.5 | 0.00 | 0.00 | 0.00 | 23 | 1023.6 |
| 20260504235515 | 73 | 292 | 10.4 | 19.1 | 0.00 | 0.00 | 0.00 | 22 | 1023.6 |
| 20260504235015 | 73 | 298 | 9.6 | 16.5 | 0.00 | 0.00 | 0.00 | 22 | 1023.6 |
| 20260504234515 | 73 | 292 | 11.3 | 19.1 | 0.00 | 0.00 | 0.00 | 22 | 1023.5 |
| 20260504234035 | 73 | 286 | 9.6 | 17.4 | 0.00 | 0.00 | 0.00 | 22 | 1023.4 |
| 20260504233515 | 74 | 289 | 8.7 | 16.5 | 0.00 | 0.00 | 0.00 | 23 | 1023.6 |
| 20260504233035 | 74 | 288 | 9.6 | 18.2 | 0.00 | 0.00 | 0.00 | 22 | 1023.6 |
| 20260504232535 | 74 | 278 | 10.4 | 20.0 | 0.00 | 0.00 | 0.00 | 19 | 1023.6 |
| 20260504232015 | 75 | 284 | 8.7 | 15.6 | 0.00 | 0.00 | 0.00 | 20 | 1023.5 |
| 20260504231515 | 75 | 276 | 8.7 | 17.4 | 0.00 | 0.00 | 0.00 | 19 | 1023.4 |
| 20260504231015 | 75 | 271 | 7.8 | 17.4 | 0.00 | 0.00 | 0.00 | 18 | 1023.3 |
| 20260504230535 | 75 | 269 | 10.4 | 17.4 | 0.00 | 0.00 | 0.00 | 18 | 1023.3 |
| 20260504230015 | 75 | 275 | 11.3 | 19.1 | 0.00 | 0.00 | 0.00 | 18 | 1023.6 |
| 20260504225515 | 75 | 279 | 13.9 | 20.9 | 0.00 | 0.00 | 0.00 | 18 | 1023.7 |
| 20260504225035 | 76 | 280 | 9.6 | 19.1 | 0.00 | 0.00 | 0.00 | 18 | 1024.0 |